| time (UTC) | temp C | wind direction | speed KPH | gust KPH | rain 1hr cm | rain 24hr cm | rain mn cm | humidity % | barometer mb |
| 20260507155835 | 15 | 18 | 0.0 | 0.0 | 0.00 | 0.13 | 0.00 | 39 | 1013.9 |
| 20260507155329 | 15 | 18 | 0.0 | 0.0 | 0.00 | 0.13 | 0.00 | 40 | 1013.9 |
| 20260507154854 | 15 | 18 | 0.0 | 0.0 | 0.00 | 0.23 | 0.00 | 42 | 1014.3 |
| 20260507154352 | 13 | 18 | 0.0 | 0.0 | 0.00 | 0.23 | 0.00 | 50 | 1014.3 |
| 20260507153852 | 13 | 18 | 0.0 | 0.0 | 0.00 | 0.23 | 0.00 | 54 | 1014.3 |
| 20260507153331 | 11 | 18 | 0.0 | 0.0 | 0.00 | 0.23 | 0.00 | 61 | 1014.3 |
| 20260507152828 | 10 | 18 | 0.0 | 0.0 | 0.00 | 0.23 | 0.00 | 65 | 1014.3 |
| 20260507152331 | 9 | 18 | 0.0 | 0.0 | 0.00 | 0.23 | 0.00 | 68 | 1014.3 |
| 20260507151846 | 8 | 18 | 0.0 | 0.0 | 0.00 | 0.23 | 0.00 | 72 | 1014.3 |
| 20260507151330 | 8 | 18 | 0.0 | 0.0 | 0.00 | 0.23 | 0.00 | 74 | 1014.3 |
| 20260507150829 | 8 | 18 | 0.0 | 0.0 | 0.00 | 0.23 | 0.00 | 74 | 1014.3 |
| 20260507150326 | 7 | 18 | 0.0 | 0.0 | 0.00 | 0.23 | 0.00 | 76 | 1014.4 |
| 20260507145901 | 7 | 18 | 0.0 | 0.0 | 0.00 | 0.23 | 0.00 | 76 | 1014.4 |
| 20260507145343 | 7 | 18 | 0.0 | 0.0 | 0.00 | 0.23 | 0.00 | 77 | 1014.4 |
| 20260507144838 | 7 | 18 | 0.0 | 0.0 | 0.00 | 0.28 | 0.00 | 76 | 1014.3 |
| 20260507144327 | 7 | 18 | 0.0 | 0.0 | 0.00 | 0.28 | 0.00 | 76 | 1014.3 |
| 20260507143921 | 7 | 18 | 0.0 | 0.0 | 0.00 | 0.28 | 0.00 | 76 | 1014.3 |
| 20260507143358 | 7 | 18 | 0.0 | 0.0 | 0.00 | 0.28 | 0.00 | 77 | 1014.3 |
| 20260507142840 | 6 | 18 | 0.0 | 0.0 | 0.00 | 0.28 | 0.00 | 77 | 1014.3 |
| 20260507142340 | 6 | 18 | 0.0 | 0.0 | 0.00 | 0.28 | 0.00 | 76 | 1014.3 |
| 20260507141838 | 6 | 18 | 0.0 | 0.0 | 0.00 | 0.28 | 0.00 | 75 | 1014.3 |
| 20260507141401 | 6 | 18 | 0.0 | 0.0 | 0.00 | 0.28 | 0.00 | 76 | 1014.3 |
| 20260507140901 | 6 | 18 | 0.0 | 0.0 | 0.00 | 0.28 | 0.00 | 76 | 1014.3 |
| 20260507140400 | 6 | 18 | 0.0 | 0.0 | 0.00 | 0.28 | 0.00 | 75 | 1014.2 |
| 20260507135825 | 6 | 18 | 0.0 | 0.0 | 0.00 | 0.28 | 0.00 | 74 | 1014.2 |
| 20260507135340 | 6 | 18 | 0.0 | 0.0 | 0.00 | 0.28 | 0.00 | 74 | 1014.2 |
| 20260507134836 | 6 | 18 | 0.0 | 0.0 | 0.00 | 0.28 | 0.00 | 74 | 1013.9 |
| 20260507134330 | 6 | 18 | 0.0 | 0.0 | 0.00 | 0.28 | 0.00 | 73 | 1013.9 |
| 20260507133833 | 6 | 18 | 0.0 | 0.0 | 0.00 | 0.28 | 0.00 | 74 | 1013.9 |
| 20260507133333 | 6 | 18 | 0.0 | 0.0 | 0.00 | 0.28 | 0.00 | 75 | 1013.9 |
| 20260507132836 | 5 | 18 | 0.0 | 0.0 | 0.00 | 0.28 | 0.00 | 78 | 1013.9 |
| 20260507132332 | 5 | 18 | 0.0 | 0.0 | 0.00 | 0.28 | 0.00 | 80 | 1013.9 |
| 20260507131832 | 5 | 18 | 0.0 | 0.0 | 0.00 | 0.28 | 0.00 | 83 | 1013.7 |
| 20260507131409 | 4 | 18 | 0.0 | 0.0 | 0.00 | 0.28 | 0.00 | 84 | 1013.7 |
| 20260507130844 | 3 | 18 | 0.0 | 0.0 | 0.00 | 0.28 | 0.00 | 85 | 1013.7 |
| 20260507130326 | 2 | 18 | 0.0 | 0.0 | 0.00 | 0.28 | 0.00 | 85 | 1013.7 |
| 20260507125825 | 2 | 18 | 0.0 | 0.0 | 0.00 | 0.28 | 0.00 | 85 | 1013.7 |
| 20260507125349 | 2 | 18 | 0.0 | 0.0 | 0.00 | 0.28 | 0.00 | 85 | 1013.7 |
| 20260507124830 | 2 | 18 | 0.0 | 0.0 | 0.00 | 0.28 | 0.00 | 85 | 1013.5 |
| 20260507124400 | 2 | 18 | 0.0 | 0.0 | 0.00 | 0.28 | 0.00 | 85 | 1013.5 |
| 20260507123839 | 2 | 18 | 0.0 | 0.0 | 0.00 | 0.28 | 0.00 | 86 | 1013.5 |
| 20260507123333 | 1 | 18 | 0.0 | 0.0 | 0.00 | 0.28 | 0.00 | 88 | 1013.3 |
| 20260507122910 | 1 | 18 | 0.0 | 0.0 | 0.00 | 0.28 | 0.00 | 90 | 1013.3 |
| 20260507122355 | 0 | 18 | 0.0 | 0.0 | 0.00 | 0.28 | 0.00 | 90 | 1013.3 |
| 20260507121852 | 0 | 18 | 0.0 | 0.0 | 0.00 | 0.28 | 0.00 | 90 | 1013.3 |
| 20260507121351 | 0 | 18 | 0.0 | 0.0 | 0.00 | 0.28 | 0.00 | 90 | 1013.3 |
| 20260507120826 | 0 | 18 | 0.0 | 0.0 | 0.00 | 0.28 | 0.00 | 90 | 1013.3 |
| 20260507120332 | 0 | 18 | 0.0 | 0.0 | 0.00 | 0.28 | 0.00 | 90 | 1013.3 |
| 20260507115910 | 0 | 18 | 0.0 | 0.0 | 0.00 | 0.28 | 0.00 | 90 | 1013.3 |
| 20260507115349 | 0 | 18 | 0.0 | 0.0 | 0.00 | 0.28 | 0.00 | 90 | 1013.3 |
| 20260507114847 | 0 | 18 | 0.0 | 0.0 | 0.00 | 0.28 | 0.00 | 91 | 1013.3 |
| 20260507114347 | 0 | 18 | 0.0 | 0.0 | 0.00 | 0.28 | 0.00 | 91 | 1013.3 |
| 20260507113900 | 0 | 18 | 0.0 | 0.0 | 0.00 | 0.28 | 0.00 | 91 | 1013.3 |
| 20260507113357 | 0 | 18 | 0.0 | 0.0 | 0.00 | 0.28 | 0.00 | 91 | 1013.4 |
| 20260507112837 | 0 | 18 | 0.0 | 0.0 | 0.00 | 0.28 | 0.00 | 90 | 1013.4 |
| 20260507112400 | 0 | 18 | 0.0 | 0.0 | 0.00 | 0.28 | 0.00 | 90 | 1013.4 |
| 20260507111835 | -1 | 18 | 0.0 | 0.0 | 0.00 | 0.28 | 0.00 | 90 | 1013.1 |
| 20260507111341 | -1 | 18 | 0.0 | 0.0 | 0.00 | 0.28 | 0.00 | 89 | 1013.1 |
| 20260507110839 | 0 | 18 | 0.0 | 0.0 | 0.00 | 0.28 | 0.00 | 89 | 1013.1 |
| 20260507110352 | 0 | 18 | 0.0 | 0.0 | 0.00 | 0.28 | 0.00 | 89 | 1013.5 |
| 20260507105851 | 0 | 18 | 0.0 | 0.0 | 0.00 | 0.28 | 0.00 | 89 | 1013.5 |
| 20260507105350 | 0 | 18 | 0.0 | 0.0 | 0.00 | 0.28 | 0.00 | 89 | 1013.5 |
| 20260507104833 | 0 | 18 | 0.0 | 0.0 | 0.00 | 0.28 | 0.00 | 88 | 1013.5 |
| 20260507104338 | 0 | 18 | 0.0 | 0.0 | 0.00 | 0.28 | 0.00 | 89 | 1013.5 |
| 20260507102830 | 0 | 18 | 0.0 | 0.0 | 0.00 | 0.28 | 0.00 | 88 | 1013.7 |
| 20260507102341 | 0 | 18 | 0.0 | 0.0 | 0.00 | 0.28 | 0.00 | 89 | 1013.7 |
| 20260507100857 | 0 | 18 | 0.0 | 0.0 | 0.00 | 0.28 | 0.00 | 89 | 1013.7 |
| 20260507100408 | 0 | 18 | 0.0 | 0.0 | 0.00 | 0.28 | 0.00 | 89 | 1013.6 |
| 20260507095846 | 0 | 18 | 0.0 | 0.0 | 0.00 | 0.28 | 0.00 | 89 | 1013.6 |
| 20260507095344 | 0 | 18 | 0.0 | 0.0 | 0.00 | 0.28 | 0.00 | 89 | 1013.6 |
| 20260507094840 | 0 | 18 | 0.0 | 0.0 | 0.00 | 0.28 | 0.00 | 88 | 1013.7 |
| 20260507094332 | 0 | 18 | 0.0 | 0.0 | 0.00 | 0.28 | 0.00 | 87 | 1013.7 |
| 20260507093831 | 0 | 18 | 0.0 | 0.0 | 0.00 | 0.28 | 0.00 | 88 | 1013.7 |
| 20260507093331 | 0 | 18 | 0.0 | 0.0 | 0.00 | 0.28 | 0.00 | 88 | 1013.8 |
| 20260507092827 | 0 | 18 | 0.0 | 0.0 | 0.00 | 0.28 | 0.00 | 88 | 1013.8 |
| 20260507092330 | 0 | 18 | 0.0 | 0.0 | 0.00 | 0.28 | 0.00 | 88 | 1013.8 |
| 20260507091842 | 0 | 18 | 0.0 | 0.0 | 0.00 | 0.28 | 0.00 | 88 | 1013.7 |
| 20260507091359 | 0 | 18 | 0.0 | 0.0 | 0.00 | 0.28 | 0.00 | 88 | 1013.7 |
| 20260507090838 | 0 | 18 | 0.0 | 0.0 | 0.00 | 0.28 | 0.00 | 88 | 1013.7 |
| 20260507090338 | 1 | 18 | 0.0 | 0.0 | 0.00 | 0.28 | 0.00 | 88 | 1013.7 |
| 20260507085838 | 1 | 18 | 0.0 | 0.0 | 0.00 | 0.28 | 0.00 | 88 | 1013.7 |
| 20260507085356 | 1 | 18 | 0.0 | 0.0 | 0.00 | 0.28 | 0.00 | 89 | 1013.7 |
| 20260507084852 | 0 | 18 | 0.0 | 0.0 | 0.00 | 0.28 | 0.00 | 89 | 1013.8 |
| 20260507084400 | 0 | 18 | 0.0 | 0.0 | 0.00 | 0.28 | 0.00 | 89 | 1013.8 |
| 20260507083854 | 0 | 18 | 0.0 | 0.0 | 0.00 | 0.28 | 0.00 | 89 | 1013.8 |
| 20260507083334 | 0 | 18 | 0.0 | 0.0 | 0.00 | 0.28 | 0.00 | 88 | 1013.9 |
| 20260507082831 | 0 | 18 | 0.0 | 0.0 | 0.00 | 0.28 | 0.00 | 88 | 1013.9 |
| 20260507082329 | 0 | 18 | 0.0 | 0.0 | 0.00 | 0.28 | 0.00 | 88 | 1013.9 |
| 20260507081825 | 0 | 18 | 0.0 | 0.0 | 0.00 | 0.28 | 0.00 | 87 | 1014.2 |
| 20260507081336 | 0 | 18 | 0.0 | 0.0 | 0.00 | 0.28 | 0.00 | 87 | 1014.2 |
| 20260507080908 | 0 | 18 | 0.0 | 0.0 | 0.00 | 0.28 | 0.00 | 86 | 1014.2 |
| 20260507080348 | 0 | 18 | 0.0 | 0.0 | 0.00 | 0.28 | 0.00 | 87 | 1014.3 |
| 20260507075848 | 0 | 18 | 0.0 | 0.0 | 0.00 | 0.28 | 0.00 | 87 | 1014.3 |
| 20260507075327 | 0 | 18 | 0.0 | 0.0 | 0.00 | 0.28 | 0.00 | 87 | 1014.3 |
| 20260507074827 | 0 | 18 | 0.0 | 0.0 | 0.00 | 0.28 | 0.00 | 87 | 1014.3 |
| 20260507074330 | 0 | 18 | 0.0 | 0.0 | 0.00 | 0.28 | 0.00 | 86 | 1014.3 |
| 20260507073851 | 1 | 18 | 0.0 | 0.0 | 0.00 | 0.28 | 0.00 | 86 | 1014.3 |
| 20260507073330 | 1 | 18 | 0.0 | 0.0 | 0.00 | 0.28 | 0.00 | 87 | 1014.6 |
| 20260507072829 | 1 | 18 | 0.0 | 0.0 | 0.00 | 0.28 | 0.00 | 87 | 1014.6 |
| 20260507072403 | 1 | 18 | 0.0 | 0.0 | 0.00 | 0.28 | 0.00 | 88 | 1014.6 |
| 20260507071822 | 1 | 18 | 0.0 | 0.0 | 0.00 | 0.28 | 0.00 | 88 | 1014.9 |
| 20260507071330 | 1 | 18 | 0.0 | 0.0 | 0.00 | 0.28 | 0.00 | 88 | 1014.9 |
| 20260507070830 | 1 | 18 | 0.0 | 0.0 | 0.00 | 0.28 | 0.00 | 88 | 1014.9 |
| 20260507070324 | 0 | 18 | 0.0 | 0.0 | 0.00 | 0.28 | 0.00 | 88 | 1014.9 |
| 20260507065830 | 0 | 18 | 0.0 | 0.0 | 0.00 | 0.28 | 0.00 | 88 | 1014.9 |
| 20260507065405 | 0 | 18 | 0.0 | 0.0 | 0.00 | 0.28 | 0.00 | 88 | 1014.9 |
| 20260507064840 | 0 | 18 | 0.0 | 0.0 | 0.00 | 0.28 | 0.28 | 88 | 1015.4 |
| 20260507064400 | 0 | 18 | 0.0 | 0.0 | 0.00 | 0.28 | 0.28 | 88 | 1015.4 |
| 20260507063838 | 0 | 18 | 0.0 | 0.0 | 0.00 | 0.28 | 0.28 | 87 | 1015.4 |
| 20260507063342 | 0 | 18 | 0.0 | 0.0 | 0.00 | 0.28 | 0.28 | 87 | 1015.5 |
| 20260507062840 | 1 | 18 | 0.0 | 0.0 | 0.00 | 0.28 | 0.28 | 87 | 1015.5 |
| 20260507062355 | 1 | 18 | 0.0 | 0.0 | 0.00 | 0.28 | 0.28 | 87 | 1015.5 |
| 20260507061857 | 1 | 18 | 0.0 | 0.0 | 0.00 | 0.28 | 0.28 | 86 | 1015.5 |
| 20260507061401 | 1 | 18 | 0.0 | 0.0 | 0.00 | 0.28 | 0.28 | 86 | 1015.5 |
| 20260507060844 | 1 | 18 | 0.0 | 0.0 | 0.00 | 0.28 | 0.28 | 87 | 1015.5 |
| 20260507060350 | 1 | 18 | 0.0 | 0.0 | 0.00 | 0.28 | 0.28 | 88 | 1015.5 |
| 20260507055842 | 1 | 18 | 0.0 | 0.0 | 0.00 | 0.28 | 0.28 | 88 | 1015.5 |
| 20260507055335 | 1 | 18 | 0.0 | 0.0 | 0.00 | 0.28 | 0.28 | 88 | 1015.5 |
| 20260507054850 | 1 | 18 | 0.0 | 0.0 | 0.00 | 0.28 | 0.28 | 87 | 1015.5 |
| 20260507054335 | 1 | 18 | 0.0 | 0.0 | 0.00 | 0.28 | 0.28 | 87 | 1015.5 |
| 20260507053847 | 1 | 18 | 0.0 | 0.0 | 0.00 | 0.28 | 0.28 | 87 | 1015.5 |
| 20260507053346 | 1 | 18 | 0.0 | 0.0 | 0.00 | 0.28 | 0.28 | 86 | 1015.5 |
| 20260507052827 | 1 | 18 | 0.0 | 0.0 | 0.00 | 0.28 | 0.28 | 86 | 1015.5 |
| 20260507052328 | 1 | 18 | 0.0 | 0.0 | 0.00 | 0.28 | 0.28 | 86 | 1015.5 |
| 20260507051831 | 1 | 18 | 0.0 | 0.0 | 0.00 | 0.28 | 0.28 | 86 | 1015.6 |
| 20260507051402 | 1 | 18 | 0.0 | 0.0 | 0.00 | 0.28 | 0.28 | 86 | 1015.6 |
| 20260507050839 | 1 | 18 | 0.0 | 0.0 | 0.00 | 0.28 | 0.28 | 85 | 1015.6 |
| 20260507050356 | 2 | 18 | 0.0 | 0.0 | 0.00 | 0.28 | 0.28 | 85 | 1015.8 |
| 20260507045834 | 2 | 18 | 0.0 | 0.0 | 0.00 | 0.28 | 0.28 | 84 | 1015.8 |
| 20260507045329 | 2 | 18 | 0.0 | 0.0 | 0.00 | 0.28 | 0.28 | 84 | 1015.8 |
| 20260507044826 | 2 | 18 | 0.0 | 0.0 | 0.00 | 0.28 | 0.28 | 84 | 1015.9 |
| 20260507044326 | 2 | 18 | 0.0 | 0.0 | 0.00 | 0.28 | 0.28 | 83 | 1015.9 |
| 20260507043856 | 2 | 18 | 0.0 | 0.0 | 0.00 | 0.28 | 0.28 | 83 | 1015.9 |
| 20260507043334 | 2 | 18 | 0.0 | 0.0 | 0.00 | 0.28 | 0.28 | 83 | 1016.1 |
| 20260507042833 | 2 | 18 | 0.0 | 0.0 | 0.00 | 0.28 | 0.28 | 83 | 1016.1 |
| 20260507042358 | 2 | 18 | 0.0 | 0.0 | 0.00 | 0.28 | 0.28 | 83 | 1016.1 |
| 20260507041837 | 2 | 18 | 0.0 | 0.0 | 0.00 | 0.28 | 0.28 | 83 | 1016.2 |
| 20260507041336 | 2 | 18 | 0.0 | 0.0 | 0.00 | 0.28 | 0.28 | 82 | 1016.2 |
| 20260507040842 | 2 | 18 | 0.0 | 0.0 | 0.00 | 0.28 | 0.28 | 82 | 1016.2 |
| 20260507040352 | 2 | 18 | 0.0 | 0.0 | 0.00 | 0.28 | 0.28 | 81 | 1016.3 |
| 20260507035847 | 2 | 18 | 0.0 | 0.0 | 0.00 | 0.28 | 0.28 | 81 | 1016.3 |
| 20260507035347 | 2 | 18 | 0.0 | 0.0 | 0.00 | 0.28 | 0.28 | 81 | 1016.3 |
| 20260507034845 | 2 | 18 | 0.0 | 0.0 | 0.00 | 0.28 | 0.28 | 80 | 1016.2 |
| 20260507034345 | 2 | 18 | 0.0 | 0.0 | 0.00 | 0.28 | 0.28 | 80 | 1016.2 |
| 20260507033845 | 3 | 18 | 0.0 | 0.0 | 0.00 | 0.28 | 0.28 | 79 | 1016.2 |
| 20260507033355 | 3 | 18 | 0.0 | 0.0 | 0.00 | 0.28 | 0.28 | 79 | 1016.2 |
| 20260507032858 | 3 | 18 | 0.0 | 0.0 | 0.00 | 0.28 | 0.28 | 78 | 1016.2 |
| 20260507032358 | 3 | 18 | 0.0 | 0.0 | 0.00 | 0.28 | 0.28 | 78 | 1016.2 |
| 20260507031859 | 3 | 18 | 0.0 | 0.0 | 0.00 | 0.28 | 0.28 | 78 | 1016.2 |
| 20260507031344 | 3 | 18 | 0.0 | 0.0 | 0.00 | 0.28 | 0.28 | 78 | 1016.2 |
| 20260507030843 | 3 | 18 | 0.0 | 0.0 | 0.00 | 0.28 | 0.28 | 78 | 1016.2 |
| 20260507030339 | 3 | 18 | 0.0 | 0.0 | 0.00 | 0.28 | 0.28 | 77 | 1016.2 |
| 20260507025839 | 3 | 18 | 0.0 | 0.0 | 0.00 | 0.28 | 0.28 | 77 | 1016.2 |
| 20260507025338 | 3 | 18 | 0.0 | 0.0 | 0.00 | 0.28 | 0.28 | 76 | 1016.2 |
| 20260507024853 | 3 | 18 | 0.0 | 0.0 | 0.00 | 0.28 | 0.28 | 76 | 1016.2 |
| 20260507024350 | 3 | 18 | 0.0 | 0.0 | 0.00 | 0.28 | 0.28 | 76 | 1016.2 |
| 20260507023855 | 3 | 18 | 0.0 | 0.0 | 0.00 | 0.28 | 0.28 | 75 | 1016.2 |
| 20260507023330 | 4 | 18 | 0.0 | 0.0 | 0.00 | 0.28 | 0.28 | 75 | 1016.2 |
| 20260507022826 | 4 | 18 | 0.0 | 0.0 | 0.00 | 0.28 | 0.28 | 74 | 1016.2 |
| 20260507022330 | 4 | 18 | 0.0 | 0.0 | 0.00 | 0.28 | 0.28 | 72 | 1016.2 |
| 20260507021834 | 4 | 18 | 0.0 | 0.0 | 0.00 | 0.28 | 0.28 | 71 | 1016.2 |
| 20260507021404 | 5 | 18 | 0.0 | 0.0 | 0.00 | 0.28 | 0.28 | 70 | 1016.2 |
| 20260507020840 | 5 | 18 | 0.0 | 0.0 | 0.00 | 0.28 | 0.28 | 70 | 1016.2 |
| 20260507020352 | 5 | 18 | 0.0 | 0.0 | 0.00 | 0.28 | 0.28 | 69 | 1016.3 |
| 20260507015849 | 5 | 18 | 0.0 | 0.0 | 0.00 | 0.28 | 0.28 | 68 | 1016.3 |
| 20260507015350 | 5 | 18 | 0.0 | 0.0 | 0.00 | 0.28 | 0.28 | 67 | 1016.3 |
| 20260507014825 | 5 | 18 | 0.0 | 0.0 | 0.00 | 0.30 | 0.28 | 66 | 1016.5 |
| 20260507014326 | 6 | 18 | 0.0 | 0.0 | 0.00 | 0.30 | 0.28 | 65 | 1016.5 |
| 20260507013825 | 6 | 18 | 0.0 | 0.0 | 0.00 | 0.30 | 0.28 | 63 | 1016.5 |
| 20260507013418 | 6 | 18 | 0.0 | 0.0 | 0.00 | 0.30 | 0.28 | 62 | 1016.5 |
| 20260507012850 | 6 | 18 | 0.0 | 0.0 | 0.00 | 0.30 | 0.28 | 62 | 1016.5 |
| 20260507012325 | 6 | 18 | 0.0 | 0.0 | 0.00 | 0.30 | 0.28 | 61 | 1016.5 |
| 20260507011842 | 6 | 18 | 0.0 | 0.0 | 0.00 | 0.30 | 0.28 | 59 | 1016.2 |
| 20260507011338 | 7 | 18 | 0.0 | 0.0 | 0.00 | 0.30 | 0.28 | 59 | 1016.2 |
| 20260507010340 | 7 | 18 | 0.0 | 0.0 | 0.00 | 0.30 | 0.28 | 57 | 1016.2 |
| 20260507005840 | 7 | 18 | 0.0 | 0.0 | 0.00 | 0.30 | 0.28 | 56 | 1016.2 |
| 20260507005333 | 7 | 18 | 0.0 | 0.0 | 0.00 | 0.30 | 0.28 | 56 | 1016.2 |
| 20260507004831 | 7 | 18 | 0.0 | 0.0 | 0.00 | 0.33 | 0.28 | 56 | 1016.3 |
| 20260507004331 | 7 | 18 | 0.0 | 0.0 | 0.00 | 0.33 | 0.28 | 56 | 1016.3 |
| 20260507003833 | 7 | 18 | 0.0 | 0.0 | 0.00 | 0.33 | 0.28 | 55 | 1016.3 |
| 20260507003348 | 7 | 18 | 0.0 | 0.0 | 0.00 | 0.33 | 0.28 | 54 | 1016.4 |
| 20260507002847 | 7 | 18 | 0.0 | 0.0 | 0.00 | 0.33 | 0.28 | 53 | 1016.4 |
| 20260507002347 | 7 | 18 | 0.0 | 0.0 | 0.00 | 0.33 | 0.28 | 54 | 1016.4 |
| 20260507001827 | 7 | 18 | 0.0 | 0.0 | 0.00 | 0.33 | 0.28 | 54 | 1016.7 |
| 20260507001345 | 7 | 18 | 0.0 | 0.0 | 0.00 | 0.33 | 0.28 | 56 | 1016.7 |
| 20260507000827 | 7 | 18 | 0.0 | 0.0 | 0.00 | 0.33 | 0.28 | 54 | 1016.7 |
| 20260507000344 | 7 | 18 | 0.0 | 0.0 | 0.00 | 0.33 | 0.28 | 53 | 1016.7 |
| 20260506235833 | 7 | 18 | 0.0 | 0.0 | 0.00 | 0.33 | 0.28 | 54 | 1016.7 |
| 20260506235331 | 7 | 18 | 0.0 | 0.0 | 0.00 | 0.33 | 0.28 | 54 | 1016.7 |
| 20260506234831 | 7 | 18 | 0.0 | 0.0 | 0.00 | 0.41 | 0.28 | 54 | 1016.7 |
| 20260506234406 | 7 | 18 | 0.0 | 0.0 | 0.00 | 0.41 | 0.28 | 54 | 1016.7 |
| 20260506233840 | 7 | 18 | 0.0 | 0.0 | 0.00 | 0.41 | 0.28 | 53 | 1016.7 |
| 20260506233402 | 7 | 18 | 0.0 | 0.0 | 0.00 | 0.41 | 0.28 | 54 | 1016.7 |
| 20260506232823 | 7 | 18 | 0.0 | 0.0 | 0.00 | 0.41 | 0.28 | 51 | 1016.7 |
| 20260506232326 | 7 | 18 | 0.0 | 0.0 | 0.00 | 0.41 | 0.28 | 53 | 1016.7 |
| 20260506231825 | 7 | 18 | 0.0 | 0.0 | 0.00 | 0.41 | 0.28 | 53 | 1016.6 |
| 20260506231356 | 7 | 18 | 0.0 | 0.0 | 0.00 | 0.41 | 0.28 | 54 | 1016.6 |
| 20260506230853 | 7 | 18 | 0.0 | 0.0 | 0.00 | 0.41 | 0.28 | 55 | 1016.6 |
| 20260506230330 | 7 | 18 | 0.0 | 0.0 | 0.00 | 0.41 | 0.28 | 55 | 1016.6 |
| 20260506225846 | 7 | 18 | 0.0 | 0.0 | 0.00 | 0.41 | 0.28 | 55 | 1016.6 |
| 20260506225329 | 7 | 18 | 0.0 | 0.0 | 0.00 | 0.41 | 0.28 | 54 | 1016.6 |
| 20260506224826 | 7 | 18 | 0.0 | 0.0 | 0.00 | 0.48 | 0.28 | 52 | 1016.7 |
| 20260506224418 | 7 | 18 | 0.0 | 0.0 | 0.00 | 0.48 | 0.28 | 57 | 1016.7 |
| 20260506223856 | 7 | 18 | 0.0 | 0.0 | 0.00 | 0.48 | 0.28 | 57 | 1016.7 |
| 20260506223334 | 7 | 18 | 0.0 | 0.0 | 0.00 | 0.48 | 0.28 | 59 | 1016.8 |
| 20260506222834 | 7 | 18 | 0.0 | 0.0 | 0.00 | 0.48 | 0.28 | 59 | 1016.8 |
| 20260506222333 | 7 | 18 | 0.0 | 0.0 | 0.00 | 0.48 | 0.28 | 60 | 1016.8 |
| 20260506221831 | 7 | 18 | 0.0 | 0.0 | 0.00 | 0.48 | 0.28 | 61 | 1017.2 |
| 20260506221330 | 7 | 18 | 0.0 | 0.0 | 0.00 | 0.48 | 0.28 | 58 | 1017.2 |
| 20260506220830 | 7 | 18 | 0.0 | 0.0 | 0.00 | 0.48 | 0.28 | 58 | 1017.2 |
| 20260506220330 | 7 | 18 | 0.0 | 0.0 | 0.00 | 0.48 | 0.28 | 61 | 1017.3 |
| 20260506215833 | 7 | 18 | 0.0 | 0.0 | 0.00 | 0.48 | 0.28 | 59 | 1017.3 |
| 20260506215410 | 7 | 18 | 0.0 | 0.0 | 0.00 | 0.48 | 0.28 | 57 | 1017.3 |
| 20260506214834 | 6 | 18 | 0.0 | 0.0 | 0.00 | 0.53 | 0.28 | 59 | 1017.4 |
| 20260506214332 | 6 | 18 | 0.0 | 0.0 | 0.00 | 0.53 | 0.28 | 57 | 1017.4 |
| 20260506213830 | 6 | 18 | 0.0 | 0.0 | 0.00 | 0.53 | 0.28 | 56 | 1017.4 |
| 20260506213353 | 6 | 18 | 0.0 | 0.0 | 0.00 | 0.53 | 0.28 | 56 | 1017.7 |
| 20260506212831 | 6 | 18 | 0.0 | 0.0 | 0.00 | 0.53 | 0.28 | 57 | 1017.7 |
| 20260506212336 | 6 | 18 | 0.0 | 0.0 | 0.00 | 0.53 | 0.28 | 54 | 1017.7 |
| 20260506211853 | 6 | 18 | 0.0 | 0.0 | 0.00 | 0.53 | 0.28 | 56 | 1017.9 |
| 20260506211349 | 6 | 18 | 0.0 | 0.0 | 0.00 | 0.53 | 0.28 | 54 | 1017.9 |
| 20260506210842 | 6 | 18 | 0.0 | 0.0 | 0.00 | 0.53 | 0.28 | 53 | 1017.9 |
| 20260506210338 | 6 | 18 | 0.0 | 0.0 | 0.00 | 0.53 | 0.28 | 52 | 1018.0 |
| 20260506205838 | 6 | 18 | 0.0 | 0.0 | 0.00 | 0.53 | 0.28 | 55 | 1018.0 |
| 20260506205353 | 6 | 18 | 0.0 | 0.0 | 0.00 | 0.53 | 0.28 | 55 | 1018.0 |
| 20260506204847 | 6 | 18 | 0.0 | 0.0 | 0.00 | 0.66 | 0.28 | 56 | 1018.3 |
| 20260506204326 | 6 | 18 | 0.0 | 0.0 | 0.00 | 0.66 | 0.28 | 54 | 1018.3 |
| 20260506203845 | 6 | 18 | 0.0 | 0.0 | 0.00 | 0.66 | 0.28 | 55 | 1018.3 |
| 20260506203342 | 6 | 18 | 0.0 | 0.0 | 0.00 | 0.66 | 0.28 | 55 | 1018.5 |
| 20260506202844 | 6 | 18 | 0.0 | 0.0 | 0.00 | 0.66 | 0.28 | 57 | 1018.5 |
| 20260506202356 | 6 | 18 | 0.0 | 0.0 | 0.00 | 0.66 | 0.28 | 56 | 1018.5 |
| 20260506201854 | 6 | 18 | 0.0 | 0.0 | 0.00 | 0.66 | 0.28 | 62 | 1018.5 |
| 20260506201358 | 6 | 18 | 0.0 | 0.0 | 0.00 | 0.66 | 0.28 | 61 | 1018.5 |
| 20260506200853 | 5 | 18 | 0.0 | 0.0 | 0.00 | 0.66 | 0.28 | 63 | 1018.5 |
| 20260506200333 | 5 | 18 | 0.0 | 0.0 | 0.00 | 0.66 | 0.28 | 64 | 1018.6 |
| 20260506195827 | 5 | 18 | 0.0 | 0.0 | 0.00 | 0.66 | 0.28 | 64 | 1018.6 |
| 20260506195344 | 5 | 18 | 0.0 | 0.0 | 0.00 | 0.66 | 0.28 | 65 | 1018.6 |
| 20260506194844 | 5 | 18 | 0.0 | 0.0 | 0.00 | 0.76 | 0.28 | 65 | 1018.7 |
| 20260506194401 | 5 | 18 | 0.0 | 0.0 | 0.00 | 0.76 | 0.28 | 67 | 1018.7 |
| 20260506193831 | 5 | 18 | 0.0 | 0.0 | 0.00 | 0.76 | 0.28 | 69 | 1018.7 |
| 20260506193327 | 5 | 18 | 0.0 | 0.0 | 0.00 | 0.76 | 0.28 | 66 | 1019.0 |
| 20260506192827 | 5 | 18 | 0.0 | 0.0 | 0.00 | 0.76 | 0.28 | 70 | 1019.0 |
| 20260506192337 | 4 | 18 | 0.0 | 0.0 | 0.00 | 0.76 | 0.28 | 70 | 1019.0 |
| 20260506191835 | 4 | 18 | 0.0 | 0.0 | 0.00 | 0.76 | 0.28 | 69 | 1019.1 |
| 20260506191336 | 4 | 18 | 0.0 | 0.0 | 0.00 | 0.76 | 0.28 | 68 | 1019.1 |
| 20260506190827 | 4 | 18 | 0.0 | 0.0 | 0.00 | 0.76 | 0.28 | 70 | 1019.1 |
| 20260506190339 | 4 | 18 | 0.0 | 0.0 | 0.00 | 0.76 | 0.28 | 70 | 1019.1 |
| 20260506185837 | 4 | 18 | 0.0 | 0.0 | 0.00 | 0.76 | 0.28 | 73 | 1019.1 |
| 20260506185340 | 3 | 18 | 0.0 | 0.0 | 0.00 | 0.76 | 0.28 | 74 | 1019.1 |
| 20260506184915 | 3 | 18 | 0.0 | 0.0 | 0.00 | 0.94 | 0.28 | 73 | 1019.2 |
| 20260506184326 | 3 | 18 | 0.0 | 0.0 | 0.00 | 0.94 | 0.28 | 73 | 1019.2 |
| 20260506183838 | 3 | 18 | 0.0 | 0.0 | 0.00 | 0.94 | 0.28 | 74 | 1019.2 |
| 20260506183336 | 3 | 18 | 0.0 | 0.0 | 0.00 | 0.94 | 0.28 | 74 | 1019.2 |
| 20260506182837 | 3 | 18 | 0.0 | 0.0 | 0.00 | 0.94 | 0.28 | 75 | 1019.2 |
| 20260506182340 | 3 | 18 | 0.0 | 0.0 | 0.00 | 0.94 | 0.28 | 76 | 1019.2 |
| 20260506181856 | 3 | 18 | 0.0 | 0.0 | 0.00 | 0.94 | 0.28 | 78 | 1019.3 |
| 20260506181335 | 3 | 18 | 0.0 | 0.0 | 0.00 | 0.94 | 0.28 | 79 | 1019.3 |
| 20260506180848 | 3 | 18 | 0.0 | 0.0 | 0.00 | 0.94 | 0.28 | 78 | 1019.3 |
| 20260506180359 | 3 | 18 | 0.0 | 0.0 | 0.03 | 0.94 | 0.28 | 79 | 1019.5 |
| 20260506175832 | 3 | 18 | 0.0 | 0.0 | 0.03 | 0.94 | 0.28 | 78 | 1019.5 |
| 20260506175329 | 3 | 18 | 0.0 | 0.0 | 0.03 | 0.94 | 0.28 | 79 | 1019.5 |
| 20260506174828 | 3 | 18 | 0.0 | 0.0 | 0.03 | 1.14 | 0.28 | 81 | 1019.6 |
| 20260506174329 | 3 | 18 | 0.0 | 0.0 | 0.03 | 1.14 | 0.28 | 85 | 1019.6 |
| 20260506173830 | 3 | 18 | 0.0 | 0.0 | 0.05 | 1.14 | 0.28 | 86 | 1019.6 |
| 20260506173401 | 2 | 18 | 0.0 | 0.0 | 0.05 | 1.14 | 0.28 | 87 | 1019.3 |
| 20260506172856 | 2 | 18 | 0.0 | 0.0 | 0.05 | 1.14 | 0.28 | 87 | 1019.3 |
| 20260506172335 | 2 | 18 | 0.0 | 0.0 | 0.08 | 1.14 | 0.28 | 89 | 1019.3 |
| 20260506171838 | 2 | 18 | 0.0 | 0.0 | 0.08 | 1.14 | 0.28 | 90 | 1019.2 |
| 20260506171344 | 2 | 18 | 0.0 | 0.0 | 0.08 | 1.14 | 0.28 | 91 | 1019.2 |
| 20260506170830 | 2 | 18 | 0.0 | 0.0 | 0.08 | 1.14 | 0.28 | 92 | 1019.2 |
| 20260506170345 | 2 | 18 | 0.0 | 0.0 | 0.08 | 1.12 | 0.25 | 92 | 1019.2 |
| 20260506165839 | 2 | 18 | 0.0 | 0.0 | 0.08 | 1.12 | 0.25 | 93 | 1019.2 |
| 20260506165352 | 1 | 18 | 0.0 | 0.0 | 0.10 | 1.12 | 0.25 | 93 | 1019.2 |
| 20260506164851 | 1 | 18 | 0.0 | 0.0 | 0.10 | 1.32 | 0.25 | 93 | 1019.2 |
| 20260506164349 | 1 | 18 | 0.0 | 0.0 | 0.10 | 1.32 | 0.25 | 94 | 1019.2 |
| 20260506163832 | 1 | 18 | 0.0 | 0.0 | 0.08 | 1.30 | 0.23 | 94 | 1019.2 |
| 20260506163334 | 1 | 18 | 0.0 | 0.0 | 0.08 | 1.30 | 0.23 | 94 | 1019.1 |
| 20260506162829 | 1 | 18 | 0.0 | 0.0 | 0.10 | 1.30 | 0.23 | 94 | 1019.1 |
| 20260506162327 | 1 | 18 | 0.0 | 0.0 | 0.08 | 1.27 | 0.20 | 94 | 1019.1 |
| 20260506161827 | 1 | 18 | 0.0 | 0.0 | 0.08 | 1.27 | 0.20 | 94 | 1019.0 |
| 20260506161329 | 1 | 18 | 0.0 | 0.0 | 0.10 | 1.27 | 0.20 | 94 | 1019.0 |
| 20260506160829 | 1 | 18 | 0.0 | 0.0 | 0.10 | 1.27 | 0.20 | 94 | 1019.0 |
| 20260506160326 | 0 | 18 | 0.0 | 0.0 | 0.10 | 1.24 | 0.18 | 94 | 1019.1 |